Location: San Martino di Castrozza
(46.2667°N, 11.8000°E)
Time: 07:45:55
(UTC+00:00)

Meteor 1-11 Rocket - Pass Details

Date: 23 April 2021
Orbit: 832 x 915 km, 81.2° (Epoch: 07 May)

Event Time Altitude Azimuth Distance (km) Brightness Sun altitude
Rises 23:58:57 0° 344° (NNW) 3,530 7.8 -30.2°
Reaches altitude 10° 00:01:27 10° 340° (NNW) 2,594 6.9 -30.1°
Enters shadow 00:06:17 47° 294° (WNW) 1,190 4.4 -29.9°
